Regional Weather Roundup
Issued by NWS

Home | Current Version | Previous Version | Text Only | Print | Product List | Glossary On
Versions: 1 2 3 4 5 6 7 8 9 10 11 12 13 14 15 16 17 18 19 20 21 22 23 24 25 26 27 28 29 30 31 32 33 34 35 36 37 38 39 40 41 42 43 44 45 46 47 48 49 50
000
ASUS46 KSTO 280709
RWRCA

NORTHERN AND CENTRAL CA REGIONAL WEATHER ROUNDUP
NATIONAL WEATHER SERVICE SACRAMENTO CA
1200 AM PDT WED SEP 28 2016

NOTE: FAIR INDICATES FEW OR NO CLOUDS BELOW 12,000 FEET WITH NO
SIGNIFICANT WEATHER AND/OR OBSTRUCTIONS TO VISIBILITY.

CAZ001-003-280800-
NORTHWEST AREA

CITY           SKY/WX    TMP DP  RH WIND       PRES   REMARKS
CRESCENT CITY  CLEAR     56  52  86 S13       29.94R
ARCATA         NOT AVBL
SHELTER COVE   NOT AVBL
UKIAH          CLEAR     61  47  59 E3        29.86S
$$

CAZ006-505>513-280800-
BAY AREA

CITY           SKY/WX    TMP DP  RH WIND       PRES   REMARKS
SANTA ROSA     CLEAR     52  49  89 SE3       29.85R
SAN RAFAEL     N/A       64  MM  MM MISG
NAPA           CLEAR     60  54  80 SE3       29.86R
CONCORD        CLEAR     65  52  62 NW5       29.83S
OAKLAND CITY   N/A      MM  MM  MM MISG
OAKLAND        CLEAR     60  55  83 NW7       29.87S
SAN FRAN CITY  N/A       54  MM  97 MISG
SAN FRAN ARPT  PTCLDY    57  52  83 W12       29.87S
LIVERMORE      CLEAR     68  41  37 CALM      29.85S
HAYWARD        CLEAR     61  52  72 NW5       29.86S
REDWOOD CITY   N/A       MM  MM  MM MISG
MOFFETT ARPT   CLEAR     64  58  80 NW3       29.87S
SAN JOSE ARPT  PTCLDY    68  57  68 NW7       29.86S
$$
CAZ034-037-514>518-280800-
CENTRAL COAST

CITY           SKY/WX    TMP DP  RH WIND       PRES   REMARKS
WATSONVILLE    PTCLDY    55  55 100 CALM      29.89S
SALINAS        CLOUDY    55  53  93 W3        29.89R
MONTEREY       CLOUDY    54  53  97 E3        29.89S FOG
PT PIEDRAS BLS NOT AVBL
SAN LUIS OBISP CLEAR     62  50  64 CALM      29.89S
SANTA MARIA    CLEAR     59  52  77 CALM      29.90R
$$
CAZ015-016-280800-
NORTHERN SACRAMENTO VALLEY

CITY           SKY/WX    TMP DP  RH WIND       PRES   REMARKS
REDDING        CLEAR     69  49  48 CALM      29.83R
RED BLUFF      CLEAR     67  50  54 NW8       29.83R
OROVILLE       CLEAR     79  49  34 E7        29.82S
$$
CAZ016>018-280800-
SOUTHERN SACRAMENTO VALLEY

CITY           SKY/WX    TMP DP  RH WIND       PRES   REMARKS
AUBURN         CLEAR     75  43  31 E7        29.90F
BEALE AFB      CLEAR     76  43  30 VRB1      29.79R
LINCOLN        FAIR      73  43  33 E7        29.80S
MARYSVILLE     CLEAR     70  46  42 E5        29.80S
SAC INTL ARPT  CLEAR     72  47  40 SE7       29.79R
MATHER AIRPORT NOT AVBL
DOWNTOWN SAC   N/A       76  MM  MM MISG
SAC EXEC ARPT  CLEAR     72  46  39 SE3       29.80S
VACAVILLE      CLEAR     74  45  35 SW6       29.80S
TRAVIS AFB     CLEAR     65  50  57 SW21      29.78S
$$
CAZ019>021-280800-
SAN JOAQUIN VALLEY

CITY           SKY/WX    TMP DP  RH WIND       PRES   REMARKS
STOCKTON       CLEAR     72  41  32 NW3       29.81S
MODESTO        CLEAR     70  55  59 CALM      29.81S
MERCED         CLEAR     73  44  35 CALM      29.81S
LEMOORE        CLEAR     70  35  27 W7        29.83S
FRESNO         CLEAR     74  46  36 CALM      29.83S
HANFORD        CLEAR     73  45  36 NW5       29.83S
PORTERVILLE    CLEAR     67  49  52 E3        29.86R
BAKERSFIELD    CLEAR     82  40  22 E6        29.84S
$$
CAZ011-012-071-280800-
NORTHERN MOUNTAINS

CITY           SKY/WX    TMP DP  RH WIND       PRES   REMARKS
YREKA          CLEAR     62  40  44 NE5       30.00R
MOUNT SHASTA   CLEAR     58  43  57 CALM      30.03S
ALTURAS        CLEAR     52  34  50 CALM      30.07S
$$
CAZ011-012-071-280800-
SIERRA NEVADA MTNS

CITY           SKY/WX    TMP DP  RH WIND       PRES   REMARKS
BLUE CANYON    CLEAR     67  37  33 CALM      30.15S
TRUCKEE        CLEAR     46  36  66 CALM      30.20R
TAHOE VLY ARPT CLEAR     47  32  56 CALM      30.20S
MAMMOTH LAKES  FAIR      47  25  42 NW3       30.27S
$$



USA.gov is the U.S. government's official web portal to all federal, state and local government web resources and services.